Location: Unspecified
(51.0000°N, 12.0000°E)
Time: 04:24:24
(UTC+02:00)

OTV 5 (USA 277) - Pass Details

Date: 24 April 2019
Orbit: 310 x 325 km, 54.5° (Epoch: 08 May)

Event Time Altitude Azimuth Distance (km) Brightness Sun altitude
Rises 23:10:13 0° 258° (WSW) 2,033 ? -20.9°
Reaches altitude 10° 23:12:12 10° 263° (W) 1,205 ? -21.0°
Enters shadow 23:12:40 14° 265° (W) 1,015 ? -21.1°
